Location: Newark
(22.8000°N, 86.1800°E)
Time: 02:05:53
(UTC+00:00)

N. Korean satellite - Visible Passes

Search period start: 26 February 2020 00:00
Search period end: 07 March 2020 00:00
Orbit: 456 x 505 km, 97.2° (Epoch: 25 February)

Date Brightness Start Highest point End Pass type
(mag) Time Alt. Az. Time Alt. Az. Time Alt. Az.
26 Feb 8.0 23:31:52 10° NNE 23:35:21 42° E 23:38:47 10° S visible
27 Feb 9.7 23:07:17 10° NE 23:09:46 17° E 23:12:13 10° SE visible
29 Feb 6.6 23:48:24 10° NNE 23:52:03 82° E 23:55:38 10° S visible
01 Mar 8.6 23:23:15 10° NE 23:26:30 30° E 23:29:40 10° SSE visible
02 Mar 10.0 22:59:11 10° ENE 23:00:52 13° E 23:02:32 10° ESE visible
04 Mar 6.7 00:05:10 10° N 00:08:41 51° WNW 00:12:08 10° SSW visible
04 Mar 7.2 23:39:36 10° NNE 23:43:11 58° E 23:46:40 10° S visible
05 Mar 9.2 23:14:43 10° NE 23:17:35 22° E 23:20:25 10° SSE visible
